Location: Arlington
(40.6323°N, 74.1651°W)
Time: 15:27:58
(UTC+00:00)

NOAA 11 - Pass Details

Date: 26 February 2020
Orbit: 833 x 849 km, 98.4° (Epoch: 31 March)

Event Time Altitude Azimuth Distance (km) Brightness Sun altitude
Rises 23:19:21 0° 160° (SSE) 3,378 7.2 -7.5°
Reaches altitude 10° 23:21:42 10° 158° (SSE) 2,445 6.4 -7.9°
Maximum altitude 23:27:07 75° 74° (ENE) 870 4.1 -8.9°
Drops below altitude 10° 23:32:32 10° 351° (N) 2,454 6.7 -10.0°
Sets 23:34:54 0° 349° (N) 3,391 7.5 -10.4°
